Regional Weather Roundup
Issued by NWS

Home | Current Version | Previous Version | Graphics & Text | Print | Product List | Glossary On
Versions: 1 2 3 4 5 6 7 8 9 10 11 12 13 14 15 16 17 18 19 20 21 22 23 24 25 26 27 28 29 30 31 32 33 34 35 36 37 38 39 40 41 42 43 44 45 46 47 48 49 50
000
ASUS43 KLOT 240002
RWRIL

ILLINOIS REGIONAL WEATHER ROUNDUP
NATIONAL WEATHER SERVICE CHICAGO/ROMEOVILLE IL
700 PM CDT THU MAR 23 2017

NOTE: "FAIR" INDICATES FEW OR NO CLOUDS BELOW 12,000 FEET WITH NO
SIGNIFICANT WEATHER AND/OR OBSTRUCTIONS TO VISIBILITY.

* THESE STATIONS ARE NOT UNDER NWS QUALITY CONTROL. THEY ALSO MAY NOT
  REPORT WEATHER SUCH AS PRECIPITATION OR FOG.

ILZ001-002-007-009-015-016-024-240100-
NORTHWEST ILLINOIS

CITY           SKY/WX    TMP DP  RH WIND       PRES   REMARKS
MOLINE         CLOUDY    46  36  68 SE12      29.95F
6HR MIN TEMP:  40; 6HR MAX TEMP:  47;

STERLING*      MOCLDY    44  31  60 SE13      29.98F
SAVANNA*       CLOUDY    42  32  65 SE15G21   29.97R
$$

ILZ003-004-008-010-011-017-018-240100-
NORTH CENTRAL ILLINOIS

CITY           SKY/WX    TMP DP  RH WIND       PRES   REMARKS
ROCKFORD       TSTM      44  32  62 S20G25    30.03F
6HR MIN TEMP:  43; 6HR MAX TEMP:  47; 6HR PCP:  0.05;

FREEPORT*      DRIZZLE   40  32  74 SE16G35   29.99F
ROCHELLE*      CLOUDY    44  30  57 SE15G21   30.05F
DE KALB*       CLOUDY    45  29  53 SE23G29   30.05F
PERU*          CLOUDY    44  31  60 SE18G28   30.05S
$$

ILZ005-006-012>014-019>023-240100-
NORTHEAST ILLINOIS

CITY           SKY/WX    TMP DP  RH WIND       PRES   REMARKS
CHICAGO-OHARE  CLOUDY    50  26  39 S20G28    30.06F
6HR MIN TEMP:  47; 6HR MAX TEMP:  50;

CHICAGO-MIDWAY CLOUDY    50  26  39 S16G24    30.09F
6HR MIN TEMP:  46; 6HR MAX TEMP:  51;

AURORA         CLOUDY    47  30  51 SE17      30.04F
6HR MIN TEMP:  44; 6HR MAX TEMP:  50; 6HR PCP: TRACE;

LANSING*       RAIN      47  34  59 S13       30.11F
JOLIET*        CLOUDY    47  34  60 SE7       30.08F
WAUKEGAN       CLOUDY    42  30  62 SE17      30.01F
6HR MIN TEMP:  38; 6HR MAX TEMP:  43;

DUPAGE AIRPORT LGT RAIN  48  28  46 S22G30    30.04F
6HR MIN TEMP:  45; 6HR MAX TEMP:  50; 6HR PCP: TRACE;

KANKAKEE*      CLOUDY    49  27  42 SE12      30.10F
WHEELING       CLOUDY    48  25  40 S20       30.05F
6HR MIN TEMP:  45; 6HR MAX TEMP:  48;

MORRIS*        CLOUDY    46  32  58 SE16      30.05F
ROMEOVILLE*    CLOUDY    45  37  73 SE13      30.07F
NORTHERLY ISL    N/A     45  27  49 S14         N/A
$$

LMZ740>746-240100-
SOUTHERN LAKE MICHIGAN

STATION/POSITION SKY/WX   TEMP    WIND        PRES    VSBY  WAVE
                          AIR SEA DIR/SP/G                  HT/PER
                          (F)     (DEG/KT/KT) (MB)    (MI)  (FT/S)
HARRISON CRIB              43     160/ 15/ 17   N/A
BURNHAM HARBOR             48     120/ 11/ 12   N/A
CALUMET HARBOR             50     160/  8/ 12 1018.9F
BURNS HARBOR               48     150/  8/ 17 1020.3F
MICHIGAN CITY              47     130/ 11/ 13   N/A
$$

ILZ025>027-034>036-040-047-049-050-058-095>099-240100-
WEST-CENTRAL ILLINOIS

CITY           SKY/WX    TMP DP  RH WIND       PRES   REMARKS
QUINCY         CLEAR     54  40  59 SE17G25   29.92F
GALESBURG*     CLOUDY    43  38  80 SE9G17    29.97F
MACOMB*        CLEAR     46  41  83 SE16      29.99S
JACKSONVILLE*  CLEAR     49  42  76 SE17      30.01F
PITTSFIELD*    CLEAR     54  43  66 SE13      29.98F
$$

ILZ028>032-037-038-041>044-048-051>054-059>061-240100-
CENTRAL ILLINOIS

CITY           SKY/WX    TMP DP  RH WIND       PRES   REMARKS
PONTIAC        MOCLDY    46  33  61 SE15      30.06F
BLOOMINGTON    PTCLDY    45  33  63 SE18      30.06F
DECATUR        CLEAR     46  34  62 SE13      30.08F
PEORIA         CLEAR     46  37  71 S13       30.03F
6HR MIN TEMP:  40; 6HR MAX TEMP:  47; 6HR PCP: TRACE;

LACON*         PTCLDY    45  34  66 SE8       30.04R
LINCOLN*       CLEAR     46  38  75 S16G22    30.05F
SPRINGFIELD    CLEAR     48  40  73 SE16      30.04F
6HR MIN TEMP:  40; 6HR MAX TEMP:  49; 6HR PCP:  0.03;

TAYLORVILLE    NOT AVBL
$$

ILZ033-039-045-046-055>057-062-063-240100-
EAST-CENTRAL ILLINOIS

CITY           SKY/WX    TMP DP  RH WIND       PRES   REMARKS
CHAMPAIGN      CLOUDY    47  30  51 SE18G25   30.10F
RANTOUL*       CLOUDY    48  34  56 SE15      30.10F
MATTOON        MOCLDY    47  35  63 SE18G24   30.11F
$$

ILZ079-100>102-240100-
SOUTHWEST ILLINOIS

CITY           SKY/WX    TMP DP  RH WIND       PRES   REMARKS
ALTON          CLEAR     54  43  66 SE12      30.04F
CAHOKIA*       CLEAR     60  43  53 SE13      30.03F
SPARTA*        CLEAR     58  46  62 SE6       30.08F
$$

ILZ064>066-069>071-074>076-080>082-084>086-088>090-092>094-240100-
SOUTH-CENTRAL ILLINOIS

CITY           SKY/WX    TMP DP  RH WIND       PRES   REMARKS
CARBONDALE     CLEAR     58  43  57 SE13      30.11S
6HR MIN TEMP:  45; 6HR MAX TEMP:  62;

CAIRO*         CLEAR     63  45  51 SE7       30.12F
EFFINGHAM*     CLEAR     48  40  74 E15G21    30.14F
MT. VERNON     CLEAR     52  42  69 SE6       30.13F
CENTRALIA*     CLEAR     55  43  65 SE10      30.09S
SALEM*         CLEAR     55  41  60 SE10G18   30.10F
METROPOLIS*    CLEAR     55  44  64 E5        30.15S
$$

ILZ067-068-072-073-078-083-087-091-240100-
SOUTHEAST ILLINOIS

CITY           SKY/WX    TMP DP  RH WIND       PRES   REMARKS
LAWRENCEVILLE  CLEAR     50  36  58 SE9       30.19F
FLORA*         CLEAR     50  42  73 SE10      30.15F
FAIRFIELD*     CLEAR     51  41  69 SE8       30.14F
HARRISBURG*    CLEAR     52  45  78 SE10      30.16S
ROBINSON*      PTCLDY    49  34  55 SE10      30.19F
CARMI*         CLEAR     50  43  76 SE9       30.16F
$$

ABBREVIATIONS USED IN REMARKS
   TC - TEMPERATURE IN CELSIUS
  WCI - WIND CHILL INDEX
   HX - HEAT INDEX
  VSB - VISIBILITY
$$




USA.gov is the U.S. government's official web portal to all federal, state and local government web resources and services.